Weather History for Winfield, KS

Change the Weather History Date:

Monday, February 24, 2014

  Actual Average Record
Temperature  
Mean Temperature 36 °F -  
Max Temperature 50 °F 48 °F 72 °F (2002)
Min Temperature 21 °F 28 °F 3 °F (2003)
Degree Days  
Heating Degree Days 30    
Moisture  
Dew Point 22 °F    
Average Humidity 60    
Maximum Humidity 75    
Minimum Humidity 38    
Precipitation  
Precipitation 0.00 in - - ()
Sea Level Pressure  
Sea Level Pressure 30.21 in    
Wind  
Wind Speed 7 mph (East)    
Max Wind Speed 14 mph    
Max Gust Speed -    
Visibility 10 miles    
Events      
Averages and records for this station are not official NWS values.
T = Trace of Precipitation, MM = Missing Value Source: NWS Daily Summary

Daily Weather History Graph

Daily Weather History Graph

Search for Another Location

Airport:

Trip Planner

Search our weather history database for the weather conditions in past years. The results will help you decide how hot, cold, wet, or windy it might be!

Date:

Astronomy

Feb. 24, 2014 Rise Set
Actual Time 7:05 AM CST 6:17 PM CST
Civil Twilight 6:39 AM CST 6:43 PM CST
Nautical Twilight 6:09 AM CST 7:13 PM CST
Astronomical Twilight 5:39 AM CST 7:44 PM CST
Moon 3:01 AM CST (2/24) 1:23 PM CST (2/24)
Length of Visible Light 12h 04m
Length of Day
11h 11m
Waning Crescent, 28% of the Moon is Illuminated
Feb 24
Waning Crescent
Mar 1
New
Mar 8
First Quarter
Mar 16
Full
Mar 23
Last Quarter

Hourly Weather History & Observations

Time (CST) Temp. Windchill Dew Point Humidity Pressure Visibility Wind Dir Wind Speed Gust Speed Precip Events Conditions
12:54 AM 26.1 °F 17.6 °F 16.0 °F 66% 30.29 in 10.0 mi NE 8.1 mph - N/A   Clear
1:54 AM 25.0 °F 17.1 °F 16.0 °F 69% 30.30 in 10.0 mi NE 6.9 mph - N/A   Clear
2:54 AM 21.9 °F 14.5 °F 14.0 °F 72% 30.30 in 10.0 mi North 5.8 mph - N/A   Clear
3:54 AM 24.1 °F 15.2 °F 16.0 °F 71% 30.29 in 10.0 mi NE 8.1 mph - N/A   Clear
4:54 AM 23.0 °F 14.7 °F 16.0 °F 74% 30.29 in 10.0 mi NE 6.9 mph - N/A   Clear
5:54 AM 21.9 °F 14.5 °F 15.1 °F 75% 30.30 in 10.0 mi NE 5.8 mph - N/A   Clear
6:54 AM 21.9 °F 14.5 °F 15.1 °F 75% 30.29 in 10.0 mi NE 5.8 mph - N/A   Clear
7:54 AM 25.0 °F 16.3 °F 16.0 °F 69% 30.29 in 10.0 mi ENE 8.1 mph - N/A   Clear
8:54 AM 30.0 °F 19.5 °F 16.0 °F 56% 30.30 in 10.0 mi East 13.8 mph - N/A   Clear
9:54 AM 33.1 °F 23.9 °F 17.1 °F 52% 30.30 in 10.0 mi East 12.7 mph - N/A   Clear
10:54 AM 39.0 °F 32.8 °F 19.9 °F 46% 30.27 in 10.0 mi SE 9.2 mph - N/A   Clear
11:54 AM 45.0 °F 40.6 °F 24.1 °F 44% 30.25 in 10.0 mi SE 8.1 mph - N/A   Clear
12:54 PM 48.0 °F - 24.1 °F 39% 30.20 in 10.0 mi SSE 11.5 mph - N/A   Clear
1:54 PM 50.0 °F - 25.0 °F 38% 30.16 in 10.0 mi South 12.7 mph - N/A   Clear
2:46 PM 46.9 °F - 25.0 °F 42% 30.11 in 10.0 mi SE 8.1 mph - N/A   Overcast
2:54 PM 46.9 °F - 25.0 °F 42% 30.13 in 10.0 mi SSE 8.1 mph - N/A   Overcast
3:44 PM 46.9 °F - 28.0 °F 48% 30.08 in 10.0 mi SE 5.8 mph - N/A   Overcast
3:54 PM 46.9 °F - 28.9 °F 50% 30.10 in 10.0 mi SSE 5.8 mph - N/A   Overcast
4:54 PM 46.0 °F 43.1 °F 28.9 °F 51% 30.09 in 10.0 mi SSE 5.8 mph - N/A   Overcast
5:54 PM 44.1 °F 41.5 °F 27.0 °F 51% 30.10 in 10.0 mi SE 4.6 mph - N/A   Clear
6:54 PM 41.0 °F 38.0 °F 27.0 °F 57% 30.12 in 10.0 mi SE 4.6 mph - N/A   Clear
7:54 PM 35.1 °F 31.0 °F 26.1 °F 70% 30.12 in 10.0 mi SSE 4.6 mph - N/A   Clear
8:54 PM 30.0 °F - 21.9 °F 72% 30.16 in 10.0 mi Calm Calm - N/A   Clear
9:54 PM 35.1 °F 32.2 °F 26.1 °F 70% 30.19 in 10.0 mi NE 3.5 mph - N/A   Clear
10:54 PM 33.1 °F 30.0 °F 26.1 °F 75% 30.20 in 10.0 mi North 3.5 mph - N/A   Clear
11:54 PM 32.0 °F 23.6 °F 24.1 °F 73% 30.23 in 10.0 mi NNE 10.4 mph - N/A   Clear